Year,Month,Day,Hour,Minute,Value (Times are PST for temperature in C)
2011,08,19,00,00,14.60
2011,08,19,00,01,14.50
2011,08,19,00,02,14.50
2011,08,19,00,03,14.50
2011,08,19,00,04,14.50
2011,08,19,00,05,14.40
2011,08,19,00,06,14.40
2011,08,19,00,07,14.40
2011,08,19,00,08,14.40
2011,08,19,00,09,14.40
2011,08,19,00,10,14.40
2011,08,19,00,11,14.30
2011,08,19,00,12,14.30
2011,08,19,00,13,14.30
2011,08,19,00,14,14.30
2011,08,19,00,15,14.30
2011,08,19,00,16,14.20
2011,08,19,00,17,14.20
2011,08,19,00,18,14.20
2011,08,19,00,19,14.10
2011,08,19,00,20,14.10
2011,08,19,00,21,14.00
2011,08,19,00,22,14.00
2011,08,19,00,23,14.00
2011,08,19,00,24,13.90
2011,08,19,00,25,13.90
2011,08,19,00,26,13.90
2011,08,19,00,27,13.80
2011,08,19,00,28,13.80
2011,08,19,00,29,13.80
2011,08,19,00,30,13.80
2011,08,19,00,31,13.80
2011,08,19,00,32,13.70
2011,08,19,00,33,13.70
2011,08,19,00,34,13.70
2011,08,19,00,35,13.70
2011,08,19,00,36,13.70
2011,08,19,00,37,13.60
2011,08,19,00,38,13.60
2011,08,19,00,39,13.60
2011,08,19,00,40,13.60
2011,08,19,00,41,13.60
2011,08,19,00,42,13.50
2011,08,19,00,43,13.50
2011,08,19,00,44,13.50
2011,08,19,00,45,13.40
2011,08,19,00,46,13.40
2011,08,19,00,47,13.40
2011,08,19,00,48,13.40
2011,08,19,00,49,13.40
2011,08,19,00,50,13.40
2011,08,19,00,51,13.30
2011,08,19,00,52,13.30
2011,08,19,00,53,13.30
2011,08,19,00,54,13.30
2011,08,19,00,55,13.30
2011,08,19,00,56,13.30
2011,08,19,00,57,13.30
2011,08,19,00,58,13.20
2011,08,19,00,59,13.20
2011,08,19,01,00,13.20
2011,08,19,01,01,13.20
2011,08,19,01,02,13.20
2011,08,19,01,03,13.20
2011,08,19,01,04,13.10
2011,08,19,01,05,13.10
2011,08,19,01,06,13.10
2011,08,19,01,07,13.10
2011,08,19,01,08,13.10
2011,08,19,01,09,13.00
2011,08,19,01,10,13.00
2011,08,19,01,11,13.00
2011,08,19,01,12,13.00
2011,08,19,01,13,13.00
2011,08,19,01,14,12.90
2011,08,19,01,15,12.90
2011,08,19,01,16,12.90
2011,08,19,01,17,12.90
2011,08,19,01,18,12.90
2011,08,19,01,19,12.80
2011,08,19,01,20,12.80
2011,08,19,01,21,12.80
2011,08,19,01,22,12.80
2011,08,19,01,23,12.80
2011,08,19,01,24,12.80
2011,08,19,01,25,12.80
2011,08,19,01,26,12.70
2011,08,19,01,27,12.70
2011,08,19,01,28,12.70
2011,08,19,01,29,12.70
2011,08,19,01,30,12.70
2011,08,19,01,31,12.70
2011,08,19,01,32,12.70
2011,08,19,01,33,12.60
2011,08,19,01,34,12.60
2011,08,19,01,35,12.60
2011,08,19,01,36,12.60
2011,08,19,01,37,12.60
2011,08,19,01,38,12.60
2011,08,19,01,39,12.60
2011,08,19,01,40,12.60
2011,08,19,01,41,12.60
2011,08,19,01,42,12.60
2011,08,19,01,43,12.60
2011,08,19,01,44,12.60
2011,08,19,01,45,12.50
2011,08,19,01,46,12.50
2011,08,19,01,47,12.50
2011,08,19,01,48,12.50
2011,08,19,01,49,12.50
2011,08,19,01,50,12.50
2011,08,19,01,51,12.40
2011,08,19,01,52,12.40
2011,08,19,01,53,12.40
2011,08,19,01,54,12.40
2011,08,19,01,55,12.40
2011,08,19,01,56,12.40
2011,08,19,01,57,12.40
2011,08,19,01,58,12.40
2011,08,19,01,59,12.40
2011,08,19,02,00,12.30
2011,08,19,02,01,12.30
2011,08,19,02,02,12.30
2011,08,19,02,03,12.30
2011,08,19,02,04,12.30
2011,08,19,02,05,12.30
2011,08,19,02,06,12.20
2011,08,19,02,07,12.20
2011,08,19,02,08,12.20
2011,08,19,02,09,12.20
2011,08,19,02,10,12.20
2011,08,19,02,11,12.20
2011,08,19,02,12,12.10
2011,08,19,02,13,12.10
2011,08,19,02,14,12.10
2011,08,19,02,15,12.10
2011,08,19,02,16,12.10
2011,08,19,02,17,12.10
2011,08,19,02,18,12.00
2011,08,19,02,19,12.00
2011,08,19,02,20,12.00
2011,08,19,02,21,12.00
2011,08,19,02,22,12.00
2011,08,19,02,23,11.90
2011,08,19,02,24,11.90
2011,08,19,02,25,11.90
2011,08,19,02,26,11.90
2011,08,19,02,27,11.90
2011,08,19,02,28,11.80
2011,08,19,02,29,11.80
2011,08,19,02,30,11.80
2011,08,19,02,31,11.80
2011,08,19,02,32,11.80
2011,08,19,02,33,11.80
2011,08,19,02,34,11.80
2011,08,19,02,35,11.80
2011,08,19,02,36,11.80
2011,08,19,02,37,11.80
2011,08,19,02,38,11.80
2011,08,19,02,39,11.80
2011,08,19,02,40,11.80
2011,08,19,02,41,11.80
2011,08,19,02,42,11.80
2011,08,19,02,43,11.80
2011,08,19,02,44,11.80
2011,08,19,02,45,11.70
2011,08,19,02,46,11.70
2011,08,19,02,47,11.70
2011,08,19,02,48,11.70
2011,08,19,02,49,11.70
2011,08,19,02,50,11.70
2011,08,19,02,51,11.70
2011,08,19,02,52,11.70
2011,08,19,02,53,11.70
2011,08,19,02,54,11.60
2011,08,19,02,55,11.60
2011,08,19,02,56,11.60
2011,08,19,02,57,11.60
2011,08,19,02,58,11.60
2011,08,19,02,59,11.60
2011,08,19,03,00,11.60
2011,08,19,03,01,11.60
2011,08,19,03,02,11.60
2011,08,19,03,03,11.60
2011,08,19,03,04,11.60
2011,08,19,03,05,11.50
2011,08,19,03,06,11.50
2011,08,19,03,07,11.50
2011,08,19,03,08,11.50
2011,08,19,03,09,11.50
2011,08,19,03,10,11.50
2011,08,19,03,11,11.50
2011,08,19,03,12,11.50
2011,08,19,03,13,11.40
2011,08,19,03,14,11.40
2011,08,19,03,15,11.40
2011,08,19,03,16,11.40
2011,08,19,03,17,11.40
2011,08,19,03,18,11.40
2011,08,19,03,19,11.40
2011,08,19,03,20,11.30
2011,08,19,03,21,11.30
2011,08,19,03,22,11.30
2011,08,19,03,23,11.30
2011,08,19,03,24,11.30
2011,08,19,03,25,11.30
2011,08,19,03,26,11.30
2011,08,19,03,27,11.30
2011,08,19,03,28,11.30
2011,08,19,03,29,11.30
2011,08,19,03,30,11.30
2011,08,19,03,31,11.30
2011,08,19,03,32,11.30
2011,08,19,03,33,11.30
2011,08,19,03,34,11.30
2011,08,19,03,35,11.30
2011,08,19,03,36,11.30
2011,08,19,03,37,11.20
2011,08,19,03,38,11.20
2011,08,19,03,39,11.20
2011,08,19,03,40,11.20
2011,08,19,03,41,11.20
2011,08,19,03,42,11.20
2011,08,19,03,43,11.20
2011,08,19,03,44,11.20
2011,08,19,03,45,11.20
2011,08,19,03,46,11.20
2011,08,19,03,47,11.20
2011,08,19,03,48,11.20
2011,08,19,03,49,11.10
2011,08,19,03,50,11.10
2011,08,19,03,51,11.10
2011,08,19,03,52,11.10
2011,08,19,03,53,11.10
2011,08,19,03,54,11.10
2011,08,19,03,55,11.10
2011,08,19,03,56,11.10
2011,08,19,03,57,11.00
2011,08,19,03,58,11.00
2011,08,19,03,59,11.00
2011,08,19,04,00,11.00
2011,08,19,04,01,11.00
2011,08,19,04,02,11.00
2011,08,19,04,03,10.90
2011,08,19,04,04,10.90
2011,08,19,04,05,10.90
2011,08,19,04,06,10.90
2011,08,19,04,07,10.90
2011,08,19,04,08,10.90
2011,08,19,04,09,10.90
2011,08,19,04,10,10.80
2011,08,19,04,11,10.80
2011,08,19,04,12,10.80
2011,08,19,04,13,10.80
2011,08,19,04,14,10.80
2011,08,19,04,15,10.80
2011,08,19,04,16,10.80
2011,08,19,04,17,10.80
2011,08,19,04,18,10.80
2011,08,19,04,19,10.80
2011,08,19,04,20,10.80
2011,08,19,04,21,10.80
2011,08,19,04,22,10.80
2011,08,19,04,23,10.80
2011,08,19,04,24,10.80
2011,08,19,04,25,10.80
2011,08,19,04,26,10.80
2011,08,19,04,27,10.80
2011,08,19,04,28,10.80
2011,08,19,04,29,10.80
2011,08,19,04,30,10.80
2011,08,19,04,31,10.70
2011,08,19,04,32,10.70
2011,08,19,04,33,10.70
2011,08,19,04,34,10.70
2011,08,19,04,35,10.70
2011,08,19,04,36,10.70
2011,08,19,04,37,10.70
2011,08,19,04,38,10.70
2011,08,19,04,39,10.70
2011,08,19,04,40,10.60
2011,08,19,04,41,10.60
2011,08,19,04,42,10.60
2011,08,19,04,43,10.60
2011,08,19,04,44,10.60
2011,08,19,04,45,10.60
2011,08,19,04,46,10.60
2011,08,19,04,47,10.60
2011,08,19,04,48,10.60
2011,08,19,04,49,10.60
2011,08,19,04,50,10.60
2011,08,19,04,51,10.60
2011,08,19,04,52,10.60
2011,08,19,04,53,10.60
2011,08,19,04,54,10.60
2011,08,19,04,55,10.60
2011,08,19,04,56,10.60
2011,08,19,04,57,10.60
2011,08,19,04,58,10.70
2011,08,19,04,59,10.70
2011,08,19,05,00,10.70
2011,08,19,05,01,10.70
2011,08,19,05,02,10.70
2011,08,19,05,03,10.70
2011,08,19,05,04,10.80
2011,08,19,05,05,10.80
2011,08,19,05,06,10.80
2011,08,19,05,07,10.80
2011,08,19,05,08,10.80
2011,08,19,05,09,10.80
2011,08,19,05,10,10.80
2011,08,19,05,11,10.80
2011,08,19,05,12,10.80
2011,08,19,05,13,10.90
2011,08,19,05,14,10.90
2011,08,19,05,15,10.90
2011,08,19,05,16,10.90
2011,08,19,05,17,10.90
2011,08,19,05,18,10.90
2011,08,19,05,19,10.90
2011,08,19,05,20,10.90
2011,08,19,05,21,10.90
2011,08,19,05,22,10.90
2011,08,19,05,23,10.90
2011,08,19,05,24,10.90
2011,08,19,05,25,10.90
2011,08,19,05,26,10.90
2011,08,19,05,27,10.90
2011,08,19,05,28,10.90
2011,08,19,05,29,10.90
2011,08,19,05,30,11.00
2011,08,19,05,31,11.00
2011,08,19,05,32,11.00
2011,08,19,05,33,11.00
2011,08,19,05,34,11.00
2011,08,19,05,35,11.00
2011,08,19,05,36,11.00
2011,08,19,05,37,11.00
2011,08,19,05,38,11.00
2011,08,19,05,39,11.00
2011,08,19,05,40,11.10
2011,08,19,05,41,11.10
2011,08,19,05,42,11.10
2011,08,19,05,43,11.10
2011,08,19,05,44,11.10
2011,08,19,05,45,11.10
2011,08,19,05,46,11.10
2011,08,19,05,47,11.10
2011,08,19,05,48,11.10
2011,08,19,05,49,11.10
2011,08,19,05,50,11.10
2011,08,19,05,51,11.10
2011,08,19,05,52,11.10
2011,08,19,05,53,11.20
2011,08,19,05,54,11.20
2011,08,19,05,55,11.20
2011,08,19,05,56,11.20
2011,08,19,05,57,11.20
2011,08,19,05,58,11.20
2011,08,19,05,59,11.20
2011,08,19,06,00,11.20
2011,08,19,06,01,11.20
2011,08,19,06,02,11.20
2011,08,19,06,03,11.20
2011,08,19,06,04,11.20
2011,08,19,06,05,11.20
2011,08,19,06,06,11.20
2011,08,19,06,07,11.20
2011,08,19,06,08,11.20
2011,08,19,06,09,11.20
2011,08,19,06,10,11.20
2011,08,19,06,11,11.20
2011,08,19,06,12,11.20
2011,08,19,06,13,11.20
2011,08,19,06,14,11.10
2011,08,19,06,15,11.10
2011,08,19,06,16,11.10
2011,08,19,06,17,11.10
2011,08,19,06,18,11.10
2011,08,19,06,19,11.10
2011,08,19,06,20,11.10
2011,08,19,06,21,11.10
2011,08,19,06,22,11.10
2011,08,19,06,23,11.10
2011,08,19,06,24,11.10
2011,08,19,06,25,11.10
2011,08,19,06,26,11.10
2011,08,19,06,27,11.10
2011,08,19,06,28,11.10
2011,08,19,06,29,11.10
2011,08,19,06,30,11.20
2011,08,19,06,31,11.20
2011,08,19,06,32,11.20
2011,08,19,06,33,11.20
2011,08,19,06,34,11.20
2011,08,19,06,35,11.20
2011,08,19,06,36,11.20
2011,08,19,06,37,11.20
2011,08,19,06,38,11.20
2011,08,19,06,39,11.30
2011,08,19,06,40,11.30
2011,08,19,06,41,11.30
2011,08,19,06,42,11.30
2011,08,19,06,43,11.30
2011,08,19,06,44,11.30
2011,08,19,06,45,11.30
2011,08,19,06,46,11.30
2011,08,19,06,47,11.40
2011,08,19,06,48,11.40
2011,08,19,06,49,11.40
2011,08,19,06,50,11.40
2011,08,19,06,51,11.40
2011,08,19,06,52,11.40
2011,08,19,06,53,11.40
2011,08,19,06,54,11.40
2011,08,19,06,55,11.40
2011,08,19,06,56,11.40
2011,08,19,06,57,11.40
2011,08,19,06,58,11.40
2011,08,19,06,59,11.40
2011,08,19,07,00,11.40
2011,08,19,07,01,11.40
2011,08,19,07,02,11.40
2011,08,19,07,03,11.40
2011,08,19,07,04,11.50
2011,08,19,07,05,11.50
2011,08,19,07,06,11.50
2011,08,19,07,07,11.50
2011,08,19,07,08,11.50
2011,08,19,07,09,11.40
2011,08,19,07,10,11.40
2011,08,19,07,11,11.50
2011,08,19,07,12,11.50
2011,08,19,07,13,11.50
2011,08,19,07,14,11.50
2011,08,19,07,15,11.50
2011,08,19,07,16,11.50
2011,08,19,07,17,11.50
2011,08,19,07,18,11.50
2011,08,19,07,19,11.50
2011,08,19,07,20,11.50
2011,08,19,07,21,11.50
2011,08,19,07,22,11.50
2011,08,19,07,23,11.50
2011,08,19,07,24,11.50
2011,08,19,07,25,11.50
2011,08,19,07,26,11.50
2011,08,19,07,27,11.40
2011,08,19,07,28,11.50
2011,08,19,07,29,11.50
2011,08,19,07,30,11.50
2011,08,19,07,31,11.50
2011,08,19,07,32,11.50
2011,08,19,07,33,11.50
2011,08,19,07,34,11.50
2011,08,19,07,35,11.50
2011,08,19,07,36,11.60
2011,08,19,07,37,11.60
2011,08,19,07,38,11.60
2011,08,19,07,39,11.60
2011,08,19,07,40,11.60
2011,08,19,07,41,11.70
2011,08,19,07,42,11.70
2011,08,19,07,43,11.70
2011,08,19,07,44,11.70
2011,08,19,07,45,11.70
2011,08,19,07,46,11.80
2011,08,19,07,47,11.80
2011,08,19,07,48,11.80
2011,08,19,07,49,11.80
2011,08,19,07,50,11.80
2011,08,19,07,51,11.80
2011,08,19,07,52,11.90
2011,08,19,07,53,11.90
2011,08,19,07,54,11.90
2011,08,19,07,55,11.90
2011,08,19,07,56,11.90
2011,08,19,07,57,12.00
2011,08,19,07,58,12.00
2011,08,19,07,59,12.00
2011,08,19,08,00,12.10
2011,08,19,08,01,12.10
2011,08,19,08,02,12.10
2011,08,19,08,03,12.10
2011,08,19,08,04,12.10
2011,08,19,08,05,12.10
2011,08,19,08,06,12.10
2011,08,19,08,07,12.20
2011,08,19,08,08,12.20
2011,08,19,08,09,12.20
2011,08,19,08,10,12.20
2011,08,19,08,11,12.30
2011,08,19,08,12,12.30
2011,08,19,08,13,12.30
2011,08,19,08,14,12.30
2011,08,19,08,15,12.30
2011,08,19,08,16,12.30
2011,08,19,08,17,12.30
2011,08,19,08,18,12.30
2011,08,19,08,19,12.30
2011,08,19,08,20,12.30
2011,08,19,08,21,12.40
2011,08,19,08,22,12.40
2011,08,19,08,23,12.40
2011,08,19,08,24,12.40
2011,08,19,08,25,12.40
2011,08,19,08,26,12.40
2011,08,19,08,27,12.40
2011,08,19,08,28,12.40
2011,08,19,08,29,12.50
2011,08,19,08,30,12.50
2011,08,19,08,31,12.50
2011,08,19,08,32,12.50
2011,08,19,08,33,12.60
2011,08,19,08,34,12.60
2011,08,19,08,35,12.60
2011,08,19,08,36,12.60
2011,08,19,08,37,12.60
2011,08,19,08,38,12.60
2011,08,19,08,39,12.60
2011,08,19,08,40,12.60
2011,08,19,08,41,12.60
2011,08,19,08,42,12.60
2011,08,19,08,43,12.70
2011,08,19,08,44,12.70
2011,08,19,08,45,12.70
2011,08,19,08,46,12.70
2011,08,19,08,47,12.70
2011,08,19,08,48,12.70
2011,08,19,08,49,12.70
2011,08,19,08,50,12.70
2011,08,19,08,51,12.70
2011,08,19,08,52,12.70
2011,08,19,08,53,12.60
2011,08,19,08,54,12.70
2011,08,19,08,55,12.70
2011,08,19,08,56,12.70
2011,08,19,08,57,12.70
2011,08,19,08,58,12.70
2011,08,19,08,59,12.70
2011,08,19,09,00,12.70
2011,08,19,09,01,12.70
2011,08,19,09,02,12.70
2011,08,19,09,03,12.70
2011,08,19,09,04,12.80
2011,08,19,09,05,12.80
2011,08,19,09,06,12.80
2011,08,19,09,07,12.80
2011,08,19,09,08,12.80
2011,08,19,09,09,12.80
2011,08,19,09,10,12.90
2011,08,19,09,11,12.90
2011,08,19,09,12,12.90
2011,08,19,09,13,12.90
2011,08,19,09,14,12.90
2011,08,19,09,15,13.00
2011,08,19,09,16,13.00
2011,08,19,09,17,13.10
2011,08,19,09,18,13.10
2011,08,19,09,19,13.10
2011,08,19,09,20,13.20
2011,08,19,09,21,13.20
2011,08,19,09,22,13.20
2011,08,19,09,23,13.20
2011,08,19,09,24,13.20
2011,08,19,09,25,13.30
2011,08,19,09,26,13.30
2011,08,19,09,27,13.30
2011,08,19,09,28,13.30
2011,08,19,09,29,13.30
2011,08,19,09,30,13.30
2011,08,19,09,31,13.40
2011,08,19,09,32,13.40
2011,08,19,09,33,13.50
2011,08,19,09,34,13.50
2011,08,19,09,35,13.60
2011,08,19,09,36,13.60
2011,08,19,09,37,13.60
2011,08,19,09,38,13.60
2011,08,19,09,39,13.60
2011,08,19,09,40,13.70
2011,08,19,09,41,13.70
2011,08,19,09,42,13.80
2011,08,19,09,43,13.80
2011,08,19,09,44,13.90
2011,08,19,09,45,14.00
2011,08,19,09,46,14.00
2011,08,19,09,47,14.10
2011,08,19,09,48,14.10
2011,08,19,09,49,14.10
2011,08,19,09,50,14.20
2011,08,19,09,51,14.30
2011,08,19,09,52,14.30
2011,08,19,09,53,14.40
2011,08,19,09,54,14.40
2011,08,19,09,55,14.40
2011,08,19,09,56,14.50
2011,08,19,09,57,14.60
2011,08,19,09,58,14.60
2011,08,19,09,59,14.70
2011,08,19,10,00,14.70
2011,08,19,10,01,14.80
2011,08,19,10,02,14.80
2011,08,19,10,03,14.70
2011,08,19,10,04,14.70
2011,08,19,10,05,14.70
2011,08,19,10,06,14.70
2011,08,19,10,07,14.70
2011,08,19,10,08,14.70
2011,08,19,10,09,14.70
2011,08,19,10,10,14.70
2011,08,19,10,11,14.80
2011,08,19,10,12,14.80
2011,08,19,10,13,14.80
2011,08,19,10,14,14.80
2011,08,19,10,15,14.90
2011,08,19,10,16,15.00
2011,08,19,10,17,15.00
2011,08,19,10,18,15.10
2011,08,19,10,19,15.10
2011,08,19,10,20,15.10
2011,08,19,10,21,15.10
2011,08,19,10,22,15.10
2011,08,19,10,23,15.20
2011,08,19,10,24,15.20
2011,08,19,10,25,15.20
2011,08,19,10,26,15.30
2011,08,19,10,27,15.30
2011,08,19,10,28,15.40
2011,08,19,10,29,15.40
2011,08,19,10,30,15.50
2011,08,19,10,31,15.60
2011,08,19,10,32,15.70
2011,08,19,10,33,15.80
2011,08,19,10,34,15.90
2011,08,19,10,35,16.00
2011,08,19,10,36,16.10
2011,08,19,10,37,16.10
2011,08,19,10,38,16.20
2011,08,19,10,39,16.20
2011,08,19,10,40,16.20
2011,08,19,10,41,16.30
2011,08,19,10,42,16.30
2011,08,19,10,43,16.40
2011,08,19,10,44,16.40
2011,08,19,10,45,16.50
2011,08,19,10,46,16.60
2011,08,19,10,47,16.70
2011,08,19,10,48,16.70
2011,08,19,10,49,16.80
2011,08,19,10,50,16.80
2011,08,19,10,51,16.80
2011,08,19,10,52,16.80
2011,08,19,10,53,16.90
2011,08,19,10,54,17.00
2011,08,19,10,55,17.10
2011,08,19,10,56,17.20
2011,08,19,10,57,17.40
2011,08,19,10,58,17.50
2011,08,19,10,59,17.60
2011,08,19,11,00,17.70
2011,08,19,11,01,17.80
2011,08,19,11,02,17.80
2011,08,19,11,03,17.90
2011,08,19,11,04,17.90
2011,08,19,11,05,18.00
2011,08,19,11,06,18.10
2011,08,19,11,07,18.20
2011,08,19,11,08,18.20
2011,08,19,11,09,18.30
2011,08,19,11,10,18.30
2011,08,19,11,11,18.40
2011,08,19,11,12,18.50
2011,08,19,11,13,18.60
2011,08,19,11,14,18.70
2011,08,19,11,15,18.70
2011,08,19,11,16,18.80
2011,08,19,11,17,18.80
2011,08,19,11,18,18.80
2011,08,19,11,19,18.80
2011,08,19,11,20,18.90
2011,08,19,11,21,19.00
2011,08,19,11,22,19.00
2011,08,19,11,23,19.10
2011,08,19,11,24,19.00
2011,08,19,11,25,19.00
2011,08,19,11,26,19.00
2011,08,19,11,27,19.00
2011,08,19,11,28,19.10
2011,08,19,11,29,19.20
2011,08,19,11,30,19.20
2011,08,19,11,31,19.30
2011,08,19,11,32,19.40
2011,08,19,11,33,19.40
2011,08,19,11,34,19.40
2011,08,19,11,35,19.40
2011,08,19,11,36,19.50
2011,08,19,11,37,19.50
2011,08,19,11,38,19.60
2011,08,19,11,39,19.70
2011,08,19,11,40,19.70
2011,08,19,11,41,19.70
2011,08,19,11,42,19.70
2011,08,19,11,43,19.70
2011,08,19,11,44,19.80
2011,08,19,11,45,19.90
2011,08,19,11,46,20.00
2011,08,19,11,47,20.20
2011,08,19,11,48,20.30
2011,08,19,11,49,20.40
2011,08,19,11,50,20.40
2011,08,19,11,51,20.50
2011,08,19,11,52,20.60
2011,08,19,11,53,20.70
2011,08,19,11,54,20.70
2011,08,19,11,55,20.80
2011,08,19,11,56,20.80
2011,08,19,11,57,20.90
2011,08,19,11,58,21.00
2011,08,19,11,59,21.00
2011,08,19,12,00,21.10
2011,08,19,12,01,21.20
2011,08,19,12,02,21.20
2011,08,19,12,03,21.30
2011,08,19,12,04,21.30
2011,08,19,12,05,21.40
2011,08,19,12,06,21.40
2011,08,19,12,07,21.40
2011,08,19,12,08,21.50
2011,08,19,12,09,21.60
2011,08,19,12,10,21.70
2011,08,19,12,11,21.80
2011,08,19,12,12,21.90
2011,08,19,12,13,21.90
2011,08,19,12,14,22.00
2011,08,19,12,15,22.00
2011,08,19,12,16,22.10
2011,08,19,12,17,22.20
2011,08,19,12,18,22.30
2011,08,19,12,19,22.40
2011,08,19,12,20,22.40
2011,08,19,12,21,22.40
2011,08,19,12,22,22.40
2011,08,19,12,23,22.40
2011,08,19,12,24,22.40
2011,08,19,12,25,22.40
2011,08,19,12,26,22.50
2011,08,19,12,27,22.50
2011,08,19,12,28,22.50
2011,08,19,12,29,22.50
2011,08,19,12,30,22.60
2011,08,19,12,31,22.60
2011,08,19,12,32,22.70
2011,08,19,12,33,22.70
2011,08,19,12,34,22.80
2011,08,19,12,35,22.90
2011,08,19,12,36,23.00
2011,08,19,12,37,23.10
2011,08,19,12,38,23.30
2011,08,19,12,39,23.40
2011,08,19,12,40,23.50
2011,08,19,12,41,23.60
2011,08,19,12,42,23.80
2011,08,19,12,43,23.90
2011,08,19,12,44,23.90
2011,08,19,12,45,24.00
2011,08,19,12,46,24.00
2011,08,19,12,47,24.10
2011,08,19,12,48,24.10
2011,08,19,12,49,24.10
2011,08,19,12,50,24.20
2011,08,19,12,51,24.20
2011,08,19,12,52,24.30
2011,08,19,12,53,24.40
2011,08,19,12,54,24.50
2011,08,19,12,55,24.60
2011,08,19,12,56,24.70
2011,08,19,12,57,24.70
2011,08,19,12,58,24.80
2011,08,19,12,59,24.90
2011,08,19,13,00,25.00
2011,08,19,13,01,25.00
2011,08,19,13,02,25.10
2011,08,19,13,03,25.10
2011,08,19,13,04,25.10
2011,08,19,13,05,25.00
2011,08,19,13,06,25.00
2011,08,19,13,07,25.00
2011,08,19,13,08,25.00
2011,08,19,13,09,25.10
2011,08,19,13,10,25.10
2011,08,19,13,11,25.10
2011,08,19,13,12,25.10
2011,08,19,13,13,25.10
2011,08,19,13,14,25.10
2011,08,19,13,15,25.10
2011,08,19,13,16,25.20
2011,08,19,13,17,25.20
2011,08,19,13,18,25.30
2011,08,19,13,19,25.40
2011,08,19,13,20,25.40
2011,08,19,13,21,25.40
2011,08,19,13,22,25.40
2011,08,19,13,23,25.40
2011,08,19,13,24,25.40
2011,08,19,13,25,25.50
2011,08,19,13,26,25.60
2011,08,19,13,27,25.70
2011,08,19,13,28,25.70
2011,08,19,13,29,25.70
2011,08,19,13,30,25.60
2011,08,19,13,31,25.60
2011,08,19,13,32,25.60
2011,08,19,13,33,25.60
2011,08,19,13,34,25.60
2011,08,19,13,35,25.60
2011,08,19,13,36,25.60
2011,08,19,13,37,25.60
2011,08,19,13,38,25.60
2011,08,19,13,39,25.60
2011,08,19,13,40,25.60
2011,08,19,13,41,25.70
2011,08,19,13,42,25.70
2011,08,19,13,43,25.80
2011,08,19,13,44,25.80
2011,08,19,13,45,25.80
2011,08,19,13,46,25.80
2011,08,19,13,47,25.80
2011,08,19,13,48,25.80
2011,08,19,13,49,25.80
2011,08,19,13,50,25.90
2011,08,19,13,51,26.00
2011,08,19,13,52,26.00
2011,08,19,13,53,26.10
2011,08,19,13,54,26.20
2011,08,19,13,55,26.30
2011,08,19,13,56,26.30
2011,08,19,13,57,26.30
2011,08,19,13,58,26.30
2011,08,19,13,59,26.20
2011,08,19,14,00,26.20
2011,08,19,14,01,26.10
2011,08,19,14,02,26.10
2011,08,19,14,03,26.10
2011,08,19,14,04,26.10
2011,08,19,14,05,26.10
2011,08,19,14,06,26.10
2011,08,19,14,07,26.20
2011,08,19,14,08,26.30
2011,08,19,14,09,26.40
2011,08,19,14,10,26.50
2011,08,19,14,11,26.60
2011,08,19,14,12,26.70
2011,08,19,14,13,26.90
2011,08,19,14,14,27.10
2011,08,19,14,15,27.10
2011,08,19,14,16,27.00
2011,08,19,14,17,26.90
2011,08,19,14,18,26.90
2011,08,19,14,19,26.80
2011,08,19,14,20,26.80
2011,08,19,14,21,26.70
2011,08,19,14,22,26.70
2011,08,19,14,23,26.70
2011,08,19,14,24,26.60
2011,08,19,14,25,26.60
2011,08,19,14,26,26.60
2011,08,19,14,27,26.60
2011,08,19,14,28,26.60
2011,08,19,14,29,26.70
2011,08,19,14,30,26.70
2011,08,19,14,31,26.80
2011,08,19,14,32,26.80
2011,08,19,14,33,26.70
2011,08,19,14,34,26.70
2011,08,19,14,35,26.70
2011,08,19,14,36,26.60
2011,08,19,14,37,26.60
2011,08,19,14,38,26.60
2011,08,19,14,39,26.60
2011,08,19,14,40,26.70
2011,08,19,14,41,26.70
2011,08,19,14,42,26.80
2011,08,19,14,43,27.00
2011,08,19,14,44,27.10
2011,08,19,14,45,27.20
2011,08,19,14,46,27.20
2011,08,19,14,47,27.20
2011,08,19,14,48,27.20
2011,08,19,14,49,27.20
2011,08,19,14,50,27.20
2011,08,19,14,51,27.30
2011,08,19,14,52,27.40
2011,08,19,14,53,27.50
2011,08,19,14,54,27.60
2011,08,19,14,55,27.70
2011,08,19,14,56,27.80
2011,08,19,14,57,27.80
2011,08,19,14,58,27.80
2011,08,19,14,59,27.80
2011,08,19,15,00,27.80
2011,08,19,15,01,27.80
2011,08,19,15,02,27.80
2011,08,19,15,03,27.80
2011,08,19,15,04,27.90
2011,08,19,15,05,27.90
2011,08,19,15,06,28.00
2011,08,19,15,07,28.10
2011,08,19,15,08,28.20
2011,08,19,15,09,28.20
2011,08,19,15,10,28.10
2011,08,19,15,11,28.10
2011,08,19,15,12,28.00
2011,08,19,15,13,27.90
2011,08,19,15,14,27.90
2011,08,19,15,15,27.90
2011,08,19,15,16,27.90
2011,08,19,15,17,28.00
2011,08,19,15,18,28.00
2011,08,19,15,19,28.00
2011,08,19,15,20,28.10
2011,08,19,15,21,28.10
2011,08,19,15,22,28.10
2011,08,19,15,23,28.10
2011,08,19,15,24,28.00
2011,08,19,15,25,28.00
2011,08,19,15,26,27.90
2011,08,19,15,27,27.90
2011,08,19,15,28,27.80
2011,08,19,15,29,27.80
2011,08,19,15,30,27.60
2011,08,19,15,31,27.60
2011,08,19,15,32,27.50
2011,08,19,15,33,27.60
2011,08,19,15,34,27.60
2011,08,19,15,35,27.60
2011,08,19,15,36,27.70
2011,08,19,15,37,27.80
2011,08,19,15,38,27.80
2011,08,19,15,39,27.80
2011,08,19,15,40,27.80
2011,08,19,15,41,27.80
2011,08,19,15,42,27.80
2011,08,19,15,43,27.80
2011,08,19,15,44,27.90
2011,08,19,15,45,27.90
2011,08,19,15,46,27.90
2011,08,19,15,47,27.90
2011,08,19,15,48,27.90
2011,08,19,15,49,28.00
2011,08,19,15,50,28.00
2011,08,19,15,51,28.10
2011,08,19,15,52,28.20
2011,08,19,15,53,28.20
2011,08,19,15,54,28.20
2011,08,19,15,55,28.20
2011,08,19,15,56,28.20
2011,08,19,15,57,28.30
2011,08,19,15,58,28.30
2011,08,19,15,59,28.30
2011,08,19,16,00,28.30
2011,08,19,16,01,28.40
2011,08,19,16,02,28.50
2011,08,19,16,03,28.50
2011,08,19,16,04,28.60
2011,08,19,16,05,28.60
2011,08,19,16,06,28.60
2011,08,19,16,07,28.60
2011,08,19,16,08,28.50
2011,08,19,16,09,28.30
2011,08,19,16,10,28.10
2011,08,19,16,11,28.00
2011,08,19,16,12,27.90
2011,08,19,16,13,27.80
2011,08,19,16,14,27.80
2011,08,19,16,15,27.70
2011,08,19,16,16,27.70
2011,08,19,16,17,27.70
2011,08,19,16,18,27.70
2011,08,19,16,19,27.60
2011,08,19,16,20,27.60
2011,08,19,16,21,27.60
2011,08,19,16,22,27.60
2011,08,19,16,23,27.60
2011,08,19,16,24,27.60
2011,08,19,16,25,27.60
2011,08,19,16,26,27.60
2011,08,19,16,27,27.60
2011,08,19,16,28,27.50
2011,08,19,16,29,27.40
2011,08,19,16,30,27.30
2011,08,19,16,31,27.30
2011,08,19,16,32,27.30
2011,08,19,16,33,27.30
2011,08,19,16,34,27.40
2011,08,19,16,35,27.40
2011,08,19,16,36,27.40
2011,08,19,16,37,27.40
2011,08,19,16,38,27.40
2011,08,19,16,39,27.40
2011,08,19,16,40,27.40
2011,08,19,16,41,27.30
2011,08,19,16,42,27.30
2011,08,19,16,43,27.30
2011,08,19,16,44,27.30
2011,08,19,16,45,27.30
2011,08,19,16,46,27.30
2011,08,19,16,47,27.30
2011,08,19,16,48,27.30
2011,08,19,16,49,27.20
2011,08,19,16,50,27.20
2011,08,19,16,51,27.10
2011,08,19,16,52,27.10
2011,08,19,16,53,27.10
2011,08,19,16,54,27.10
2011,08,19,16,55,27.10
2011,08,19,16,56,27.20
2011,08,19,16,57,27.20
2011,08,19,16,58,27.20
2011,08,19,16,59,27.20
2011,08,19,17,00,27.20
2011,08,19,17,01,27.30
2011,08,19,17,02,27.20
2011,08,19,17,03,27.20
2011,08,19,17,04,27.20
2011,08,19,17,05,27.10
2011,08,19,17,06,27.10
2011,08,19,17,07,27.10
2011,08,19,17,08,27.10
2011,08,19,17,09,27.10
2011,08,19,17,10,27.10
2011,08,19,17,11,27.10
2011,08,19,17,12,27.10
2011,08,19,17,13,27.00
2011,08,19,17,14,27.10
2011,08,19,17,15,27.10
2011,08,19,17,16,27.00
2011,08,19,17,17,26.90
2011,08,19,17,18,26.90
2011,08,19,17,19,26.90